Highgate, VT

6:49 AM EDT on May 28, 2018 (GMT -0400)
Franklin County State

Weather History for KFSO - July, 2013

Change the Weather History Date:

Thursday, July 4, 2013

  Actual Average (KPBG) Record (KPBG)
Temperature  
Mean Temperature 79 °F -  
Max Temperature 89 °F 80 °F 95 °F (1955)
Min Temperature 69 °F 58 °F 45 °F (1982)
Cooling Degree Days 14    
Growing Degree Days 29 (Base 50)    
Moisture  
Dew Point 70 °F    
Average Humidity 81    
Maximum Humidity 92    
Minimum Humidity 57    
Precipitation  
Precipitation 0.00 in - - ()
Sea Level Pressure  
Sea Level Pressure 30.11 in    
Wind  
Wind Speed 3 mph (SSW)    
Max Wind Speed 7 mph    
Max Gust Speed -    
Visibility 8 miles    
Events Rain    
Averages and records for this station are not official NWS values.
T = Trace of Precipitation, MM = Missing Value Source: NWS Daily Summary

Daily Weather History Graph

Daily Weather History Graph

Search for Another Location

Airport or City:

Astronomy

Jul. 04, 2013 Rise Set
Actual Time 5:11 AM EDT 8:41 PM EDT
Civil Twilight 4:34 AM EDT 9:18 PM EDT
Nautical Twilight 3:46 AM EDT 10:07 PM EDT
Astronomical Twilight 2:43 AM EDT 11:09 PM EDT
Moon 2:30 AM EDT (7/4) 5:40 PM EDT (7/4)
Length of Visible Light 16h 43m
Length of Day
15h 29m
Waning Crescent, 11% of the Moon is Illuminated
Jul 4
Waning Crescent
Jul 8
New
Jul 15
First Quarter
Jul 22
Full
Jul 29
Last Quarter

Hourly Weather History & Observations

Time (EDT) Temp. Heat Index Dew Point Humidity Pressure Visibility Wind Dir Wind Speed Gust Speed Precip Events Conditions
12:15 AM 69.4 °F - 66.2 °F 89% 30.15 in 4.0 mi Calm Calm - N/A   Clear
12:35 AM 69.4 °F - 66.4 °F 90% 30.15 in 3.0 mi Calm Calm - N/A   Clear
12:55 AM 69.6 °F - 66.6 °F 90% 30.15 in 3.0 mi Calm Calm - N/A   Clear
1:15 AM 69.4 °F - 66.4 °F 90% 30.15 in 2.5 mi Calm Calm - N/A   Clear
1:35 AM 69.4 °F - 66.6 °F 91% 30.14 in 1.2 mi Calm Calm - N/A   Mist
1:55 AM 69.4 °F - 67.1 °F 92% 30.14 in 2.5 mi SSE 3.5 mph - N/A   Clear
2:15 AM 69.4 °F - 67.1 °F 92% 30.14 in 2.5 mi Calm Calm - N/A   Clear
2:35 AM 69.4 °F - 66.6 °F 91% 30.14 in 1.8 mi Calm Calm - N/A   Mist
2:55 AM 69.4 °F - 67.1 °F 92% 30.13 in 3.0 mi SSE 4.6 mph - N/A   Clear
3:15 AM 69.4 °F - 67.1 °F 92% 30.14 in 2.5 mi Calm Calm - N/A   Clear
3:35 AM 69.4 °F - 67.1 °F 92% 30.14 in 3.0 mi Calm Calm - N/A   Clear
3:55 AM 69.4 °F - 67.1 °F 92% 30.13 in 3.0 mi SSE 3.5 mph - N/A   Clear
4:15 AM 69.4 °F - 67.1 °F 92% 30.13 in 3.0 mi SSE 3.5 mph - N/A   Clear
4:35 AM 69.4 °F - 67.1 °F 92% 30.13 in 2.5 mi Calm Calm - N/A   Clear
4:55 AM 69.4 °F - 67.1 °F 92% 30.13 in 2.5 mi Calm Calm - N/A   Clear
5:15 AM 69.4 °F - 67.1 °F 92% 30.14 in 2.5 mi SSE 4.6 mph - N/A   Clear
5:35 AM 69.4 °F - 67.1 °F 92% 30.14 in 2.5 mi SSE 4.6 mph - N/A   Clear
5:55 AM 69.4 °F - 67.1 °F 92% 30.15 in 3.0 mi South 3.5 mph - N/A   Clear
6:15 AM 69.4 °F - 67.1 °F 92% 30.15 in 3.0 mi Calm Calm - N/A   Clear
6:35 AM 71.1 °F - 68.5 °F 92% 30.15 in 4.0 mi Calm Calm - N/A   Clear
6:55 AM 74.5 °F - 72.0 °F 92% 30.15 in 5.0 mi South 3.5 mph - N/A   Clear
7:15 AM 74.5 °F - 71.8 °F 91% 30.15 in 7.0 mi SSW 3.5 mph - N/A   Clear
7:35 AM 74.5 °F - 71.4 °F 90% 30.16 in 7.0 mi South 5.8 mph - N/A   Clear
7:55 AM 76.3 °F - 72.3 °F 87% 30.17 in 10.0 mi SSW 6.9 mph - N/A   Clear
8:15 AM 77.0 °F - 71.6 °F 83% 30.16 in 10.0 mi SSW 5.8 mph - N/A   Scattered Clouds
8:35 AM 77.5 °F - 70.7 °F 79% 30.17 in 10.0 mi SSW 5.8 mph - N/A   Clear
8:55 AM 79.7 °F - 71.6 °F 76% 30.17 in 10.0 mi SW 6.9 mph - N/A   Clear
9:15 AM 80.2 °F 83.7 °F 70.9 °F 73% 30.17 in 10.0 mi SSW 5.8 mph - N/A   Clear
9:35 AM 79.9 °F - 70.3 °F 73% 30.16 in 10.0 mi South 5.8 mph - N/A   Clear
9:55 AM 79.9 °F - 71.1 °F 74% 30.16 in 10.0 mi Calm Calm - N/A   Clear
10:15 AM 80.8 °F 84.7 °F 71.4 °F 73% 30.16 in 10.0 mi South 3.5 mph - N/A   Scattered Clouds
10:35 AM 82.0 °F 86.3 °F 71.1 °F 69% 30.15 in 10.0 mi SW 6.9 mph - N/A   Scattered Clouds
10:55 AM 82.0 °F 86.5 °F 71.4 °F 70% 30.15 in 10.0 mi South 4.6 mph - N/A   Clear
11:15 AM 83.3 °F 88.4 °F 71.6 °F 68% 30.15 in 10.0 mi Calm Calm - N/A   Clear
11:35 AM 83.7 °F 88.6 °F 71.1 °F 66% 30.15 in 10.0 mi SW 4.6 mph - N/A   Scattered Clouds
11:55 AM 86.0 °F 91.5 °F 71.1 °F 61% 30.14 in 10.0 mi SSW 6.9 mph - N/A   Clear
12:15 PM 84.6 °F 89.1 °F 70.3 °F 62% 30.13 in 7.0 mi SW 6.9 mph - N/A   Scattered Clouds
12:35 PM 88.3 °F 95.4 °F 72.1 °F 59% 30.12 in 10.0 mi SW 6.9 mph - N/A   Scattered Clouds
12:55 PM 89.6 °F 97.7 °F 72.9 °F 58% 30.11 in 10.0 mi West 6.9 mph - N/A   Clear
1:15 PM 89.2 °F 96.4 °F 72.1 °F 57% 30.10 in 10.0 mi West 4.6 mph - N/A   Clear
1:35 PM 82.0 °F 85.9 °F 70.0 °F 67% 30.11 in 10.0 mi West 4.6 mph - N/A   Clear
1:55 PM 79.7 °F - 71.2 °F 75% 30.11 in 7.0 mi Calm Calm - N/A Rain Rain
2:15 PM 77.0 °F - 71.2 °F 82% 30.11 in 7.0 mi Calm Calm - N/A Rain Light Rain
2:35 PM 77.0 °F - 72.0 °F 84% 30.10 in 7.0 mi West 3.5 mph - N/A Rain Light Rain
2:55 PM 77.0 °F - 72.5 °F 86% 30.10 in 7.0 mi SSW 3.5 mph - N/A Rain Light Rain
3:15 PM 77.0 °F - 72.3 °F 85% 30.10 in 7.0 mi SSW 4.6 mph - N/A Rain Light Rain
3:35 PM 75.9 °F - 70.9 °F 84% 30.11 in 10.0 mi SSW 4.6 mph - N/A   Overcast
3:55 PM 76.3 °F - 71.8 °F 86% 30.08 in 10.0 mi Calm Calm - N/A   Scattered Clouds
4:15 PM 77.0 °F - 72.5 °F 86% 30.08 in 7.0 mi Calm Calm - N/A Rain Light Rain
4:35 PM 77.0 °F - 72.0 °F 84% 30.08 in 10.0 mi SSE 3.5 mph - N/A   Mostly Cloudy
4:55 PM 77.5 °F - 71.4 °F 81% 30.07 in 10.0 mi SE 3.5 mph - N/A   Mostly Cloudy
5:15 PM 79.9 °F - 74.1 °F 82% 30.07 in 10.0 mi Calm Calm - N/A   Overcast
5:35 PM 82.2 °F 87.1 °F 72.0 °F 71% 30.07 in 10.0 mi SW 4.6 mph - N/A   Scattered Clouds
5:55 PM 82.6 °F 87.1 °F 70.9 °F 68% 30.06 in 10.0 mi SSW 5.8 mph - N/A   Scattered Clouds
6:15 PM 82.6 °F 87.6 °F 72.0 °F 70% 30.05 in 10.0 mi SSW 5.8 mph - N/A   Scattered Clouds
6:35 PM 82.0 °F 86.7 °F 71.6 °F 71% 30.05 in 10.0 mi SSW 3.5 mph - N/A   Clear
6:55 PM 82.0 °F 86.7 °F 72.0 °F 71% 30.05 in 10.0 mi South 4.6 mph - N/A   Clear
7:15 PM 81.7 °F 86.3 °F 71.8 °F 72% 30.05 in 10.0 mi South 5.8 mph - N/A   Clear
7:35 PM 80.8 °F 84.6 °F 70.9 °F 72% 30.05 in 10.0 mi South 5.8 mph - N/A   Clear
7:55 PM 80.8 °F 84.2 °F 70.2 °F 70% 30.05 in 10.0 mi South 3.5 mph - N/A   Clear
8:15 PM 79.7 °F - 70.2 °F 73% 30.05 in 10.0 mi South 4.6 mph - N/A   Clear
8:35 PM 78.8 °F - 70.5 °F 76% 30.05 in 10.0 mi South 4.6 mph - N/A   Scattered Clouds
8:55 PM 77.7 °F - 69.1 °F 75% 30.05 in 10.0 mi South 3.5 mph - N/A   Mostly Cloudy
9:15 PM 77.0 °F - 68.5 °F 75% 30.05 in 10.0 mi South 3.5 mph - N/A   Scattered Clouds
9:35 PM 77.0 °F - 68.5 °F 75% 30.06 in 10.0 mi SW 4.6 mph - N/A   Scattered Clouds
9:55 PM 76.8 °F - 70.7 °F 81% 30.08 in 10.0 mi WSW 4.6 mph - N/A   Scattered Clouds
10:15 PM 74.7 °F - 70.0 °F 85% 30.08 in 10.0 mi West 3.5 mph - N/A   Mostly Cloudy
10:35 PM 74.5 °F - 70.2 °F 86% 30.08 in 10.0 mi SW 4.6 mph - N/A   Scattered Clouds
10:55 PM 74.5 °F - 70.2 °F 86% 30.08 in 10.0 mi SSW 4.6 mph - N/A   Clear
11:15 PM 74.5 °F - 70.0 °F 86% 30.08 in 10.0 mi SSW 5.8 mph - N/A   Clear
11:35 PM 74.5 °F - 69.8 °F 85% 30.08 in 10.0 mi SSW 4.6 mph - N/A   Clear
11:55 PM 74.5 °F - 69.8 °F 85% 30.09 in 10.0 mi South 4.6 mph - N/A   Clear